Location: Pulvis Stellarum Observatory
(41.6962°N, 71.4263°W)
Time: 09:31:36
(UTC-05:00)

Daily predictions for brighter satellites

Satellite Brightness Start Highest point End
(mag) Time Altitude Azimuth Time Altitude Azimuth Time Altitude Azimuth
Cosmos 2082 Rocket 3.7 16:41:45 10° NNE 16:44:58 15° NE 16:48:12 10° E
SL-27 R/B 3.1 16:41:53 10° N 16:45:20 37° ENE 16:48:44 10° SE
Cosmos 1833 Rocket 4.3 16:43:54 10° NNE 16:46:39 14° NE 16:49:23 10° ENE
SL-8 R/B 4.5 16:43:39 10° SSW 16:48:04 39° SE 16:52:31 10° ENE
Cosmos 1484 Rocket 4.1 16:51:59 10° ESE 16:54:33 18° ENE 16:57:07 10° NNE
Okean 1 Rocket 4.4 16:50:39 10° NNW 16:54:47 44° W 16:58:53 10° SSW
Cosmos 1633 4.3 16:54:17 10° NNW 16:57:37 36° W 17:00:55 10° SSW
Cosmos 1544 Rocket 3.8 16:55:10 10° N 16:59:32 51° E 17:03:52 10° SSE
COSMO-SKYMED 1 3.9 16:57:55 10° NE 17:01:13 21° E 17:04:29 10° SE
Cosmos 1975 Rocket 3.3 16:59:05 10° SSW 17:03:23 73° W 17:07:43 10° N
Cosmos 1500 4.4 17:02:42 10° NNE 17:05:42 21° ENE 17:08:42 10° SE
Cosmos 2263 Rocket 4.2 17:02:13 10° WSW 17:06:30 22° NW 17:10:51 10° N
USA 116 4.5 17:02:17 10° NNE 17:07:42 77° ESE 17:12:54 10° S
BREEZE-M DEB (TANK) 4.5 17:00:13 10° W 17:09:08 38° NNW 17:12:58 12° NE
PAYLOAD A 4.3 17:06:04 10° S 17:10:50 70° WSW 17:15:49 10° NNW
GEOS 3 Rocket 4.2 17:13:57 10° ESE 17:18:31 34° NE 17:23:07 10° NNW
Cosmos 1536 Rocket 3.7 17:15:39 10° S 17:19:58 52° E 17:24:20 10° NNE
SJ-7 4.5 17:17:48 10° SSE 17:22:02 88° ENE 17:26:18 10° NNW
USA 234 3.6 17:16:31 10° NE 17:22:58 63° NW 17:29:24 10° WSW
Tiangong 1 2.9 17:21:59 10° SSW 17:24:15 19° SSE 17:25:29 15° ESE
SPOT 3 Rocket 3.8 17:19:42 10° S 17:24:53 77° WSW 17:30:05 10° NNW
Okean 1 3.4 17:23:09 10° S 17:27:05 53° E 17:31:04 10° NNE
YAOGAN 1 2.8 17:23:36 10° S 17:27:55 76° WSW 17:32:16 10° NNW
Meteor 1-18 Rocket 4.2 17:22:33 10° S 17:28:09 77° E 17:33:55 10° NNE
Cosmos 1844 Rocket 3.3 17:25:56 10° SW 17:31:24 55° WNW 17:36:58 10° NNE
Cosmos 1812 2.6 17:27:36 10° S 17:31:27 88° E 17:35:20 10° N
CZ-4 R/B 4.4 17:28:23 10° SSE 17:32:31 89° WSW 17:36:43 10° NNW
BREEZE M DEB (TANK) 3.5 17:23:53 10° SW 17:33:30 47° SSE 17:35:33 24° E
COSMOS 2487 3.1 17:33:18 10° N 17:36:38 34° ENE 17:38:37 19° ESE
Cosmos 921 Rocket 4.0 17:33:58 10° SSE 17:37:24 24° E 17:37:43 24° E
EP 2 4.3 17:34:53 10° SW 17:37:28 78° WNW 17:38:30 33° NNE
NOSS 3-3 (A) 4.0 17:32:36 10° SSW 17:38:44 73° ESE 17:44:01 17° NE
NOSS 3-3 (C) 4.0 17:32:42 10° SSW 17:38:50 72° ESE 17:44:05 17° NE
FALCON 9 R/B 4.3 17:11:50 10° WSW 17:40:17 55° S 17:46:24 18° ESE
ISS -1.7 17:38:00 10° W 17:40:52 27° NNW 17:42:12 20° NNE
Cosmos 1346 Rocket 2.8 17:39:18 10° S 17:43:07 52° E 17:45:20 22° NNE
IDEFIX/ARIANE 42P 3.4 17:40:26 10° S 17:45:29 52° W 17:50:34 10° NNW
Cosmos 494 Rocket 4.3 17:42:06 10° NNW 17:47:20 70° WSW 17:52:33 10° S
ATLAS 2AS CENTAUR R/B 3.3 17:39:24 10° NW 17:47:26 70° WSW 17:54:53 10° SSE
Cosmos 1844 4.3 17:42:44 10° SW 17:48:10 54° WNW 17:53:38 10° NNE
Cosmos 1455 Rocket 3.7 17:44:37 10° NNW 17:48:57 58° W 17:53:17 10° S
SKYMED 2 3.5 17:45:30 12° NNE 17:49:31 70° ESE 17:53:50 10° S
Cosmos 2297 4.0 17:45:01 10° S 17:50:21 46° ESE 17:53:05 26° NE
Cosmos 2366 rocket 4.4 17:44:46 10° NNW 17:51:04 66° W 17:57:18 10° S
Okean 1-7 Rocket 3.9 17:49:04 10° SSE 17:53:20 43° E 17:54:42 33° NE
CZ-3B DEB 2.6 17:51:55 10° WSW 17:55:52 63° NNW 18:02:17 20° NE
MSX 4.3 17:52:27 10° S 17:58:09 64° WSW 18:03:52 10° NNW
Cosmos 1934 Rocket 4.4 17:54:56 10° N 18:00:40 38° ENE 18:06:25 10° SE
Cosmos 1809 Rocket 4.4 17:56:24 10° N 18:02:35 87° E 18:08:42 10° S
CZ-4 R/B 4.2 17:59:27 10° SW 18:02:38 21° W 18:05:48 10° NW
Abrixas 4.1 18:01:52 10° NW 18:03:36 25° NNW 18:03:36 25° NNW
Cosmos 2278 Rocket 2.5 17:59:01 10° SW 18:04:37 66° WNW 18:09:21 15° NNE
BREEZE-M R/B 4.1 17:59:55 10° WSW 18:10:14 77° NNW 18:12:19 39° NE
Timation 2 Rocket 4.1 18:03:40 10° NNW 18:10:30 72° ENE 18:17:23 10° SSE
Cosmos 1975 3.9 18:07:23 10° NNW 18:11:18 46° W 18:15:09 10° SSW
Meteor 1-19 Rocket 4.2 18:08:48 10° S 18:14:31 67° E 18:18:28 21° NNE
Cosmos 2239 Rocket 4.4 18:10:14 10° N 18:16:26 65° E 18:22:31 10° SSE
Genesis I 3.5 18:18:44 10° NW 18:22:39 66° WSW 18:23:18 54° S
NOAA 12 4.0 18:20:04 10° SSE 18:25:21 87° ENE 18:30:39 10° NNW
Cosmos 1821 Rocket 3.8 18:19:53 10° N 18:26:01 73° E 18:32:04 10° SSE
Cosmos 2082 Rocket 2.1 18:24:14 10° NNW 18:29:55 86° ENE 18:33:42 22° SSE
Meteor 2-8 Rocket 4.4 18:24:12 10° SSE 18:29:59 55° E 18:29:59 55° E
SL-8 R/B 3.9 18:25:48 10° WSW 18:30:31 59° NNW 18:30:50 57° N
Cosmos 1833 Rocket 2.5 18:25:54 10° NNW 18:31:34 76° ENE 18:33:05 50° SE
Meteor 1-13 Rocket 4.4 18:26:14 10° SSW 18:31:53 72° W 18:37:11 13° N
METEOR-M 4.0 18:28:08 10° SSE 18:33:28 87° ENE 18:38:51 10° NNW
NOSS 2-1 (D) 4.3 18:31:02 10° SSW 18:33:30 39° SSW 18:33:30 39° SSW
NOSS 2-1 (C) 4.3 18:31:43 10° SSW 18:34:09 38° SSW 18:34:09 38° SSW
COSMO-SKYMED 1 4.1 18:34:05 13° N 18:37:26 35° WNW 18:41:23 10° SW
Meteor 1-23 Rocket 4.2 18:38:11 10° S 18:43:21 69° SE 18:43:21 69° SE
Meteor 1-28 Rocket 4.5 18:45:30 40° W 18:45:30 40° W 18:48:46 10° SW
Timation 1 Rocket 4.5 18:48:26 10° SSW 18:54:21 69° WNW 18:55:27 57° N
Meteor 2-4 Rocket 3.8 18:53:26 10° SSW 18:58:30 69° WSW 18:58:30 69° WSW
ATLAS 3B CENTAUR R/B 4.1 19:01:29 10° WSW 19:14:03 32° SSW 19:15:58 29° S
BREEZE M DEB (TANK) 3.9 19:17:23 10° WNW 19:21:54 85° NNW 19:21:54 85° NNW
NOSS 3-4 (A) 4.0 19:16:08 10° NW 19:21:59 65° NW 19:21:59 65° NW
NOSS 3-4 (C) 4.0 19:16:14 10° NW 19:22:03 65° NW 19:22:03 65° NW
